ALK104 VRMM-VCBI

Flight info

Callsign ALK104
Flight time 1h 8m
Altitude 41000
Route HOKEY1A HOKEY M512 TELIG LALUM1A
Aircraft A333/H-SDE3GHIJ2J3J5M1RVWXY/LB2D1

Departure

Time 2026-04-25 09:32
Airport Velana International Airport (VRMM)

Arrival

Time 2026-04-25 10:40
Airport Bandaranaike International Colombo Airport (VCBI)
Time Latitude Longitude Altitude Speed Heading
2026-04-25 09:04 4.18460 73.52784 16 ft 0 kts 270°
2026-04-25 09:19 4.18460 73.52785 44 ft 0 kts 269°
2026-04-25 09:23 4.18460 73.52787 44 ft 3 kts 269°
2026-04-25 09:24 4.18460 73.52814 16 ft 4 kts 269°
2026-04-25 09:24 4.18461 73.52839 16 ft 4 kts 285°
2026-04-25 09:24 4.18447 73.52855 18 ft 4 kts 346°
2026-04-25 09:24 4.18420 73.52859 18 ft 4 kts 359°
2026-04-25 09:25 4.18415 73.52859 17 ft 0 kts 359°
2026-04-25 09:27 4.18418 73.52859 17 ft 1 kts 359°
2026-04-25 09:27 4.18427 73.52859 17 ft 3 kts 359°
2026-04-25 09:27 4.18458 73.52860 18 ft 5 kts
2026-04-25 09:28 4.18479 73.52882 17 ft 5 kts 66°
2026-04-25 09:28 4.18474 73.52914 16 ft 5 kts 116°
2026-04-25 09:28 4.18447 73.52926 16 ft 5 kts 169°
2026-04-25 09:28 4.18409 73.52928 16 ft 6 kts 179°
2026-04-25 09:29 4.18360 73.52929 16 ft 8 kts 179°
2026-04-25 09:29 4.18298 73.52930 16 ft 10 kts 179°
2026-04-25 09:29 4.18231 73.52931 16 ft 8 kts 179°
2026-04-25 09:29 4.18203 73.52966 16 ft 7 kts 106°
2026-04-25 09:30 4.18197 73.53020 16 ft 9 kts 93°
2026-04-25 09:30 4.18197 73.53083 16 ft 8 kts 88°
2026-04-25 09:30 4.18226 73.53102 16 ft 5 kts
2026-04-25 09:30 4.18247 73.53103 16 ft 1 kts 359°
2026-04-25 09:31 4.18264 73.53103 16 ft 7 kts 360°
2026-04-25 09:31 4.18450 73.53102 16 ft 57 kts
2026-04-25 09:31 4.19058 73.53103 16 ft 116 kts 359°
2026-04-25 09:31 4.20045 73.53102 29 ft 166 kts
2026-04-25 09:32 4.21221 73.53101 647 ft 168 kts 359°
2026-04-25 09:32 4.22384 73.53108 1397 ft 168 kts 358°
2026-04-25 09:32 4.23594 73.53127 1870 ft 182 kts
2026-04-25 09:32 4.24918 73.53166 2320 ft 199 kts
2026-04-25 09:33 4.26364 73.53211 2801 ft 217 kts
2026-04-25 09:33 4.27943 73.53263 3283 ft 237 kts
2026-04-25 09:33 4.29647 73.53321 3823 ft 253 kts 360°
2026-04-25 09:33 4.31409 73.53282 4411 ft 264 kts 356°
2026-04-25 09:34 4.33234 73.53208 5114 ft 269 kts 358°
2026-04-25 09:34 4.35149 73.53154 5881 ft 273 kts 359°
2026-04-25 09:34 4.37061 73.53123 6658 ft 277 kts 360°
2026-04-25 09:34 4.38990 73.53294 7369 ft 281 kts 15°
2026-04-25 09:35 4.40721 73.54173 8151 ft 282 kts 41°
2026-04-25 09:35 4.41880 73.55743 8953 ft 284 kts 68°
2026-04-25 09:35 4.42266 73.57688 9745 ft 287 kts 87°
2026-04-25 09:35 4.42291 73.59712 10364 ft 297 kts 90°
2026-04-25 09:36 4.42261 73.61847 10682 ft 317 kts 90°
2026-04-25 09:36 4.42233 73.64115 11003 ft 334 kts 90°
2026-04-25 09:36 4.42215 73.66478 11525 ft 342 kts 90°
2026-04-25 09:36 4.42206 73.68880 12190 ft 347 kts 90°
2026-04-25 09:37 4.42201 73.71312 12868 ft 351 kts 90°
2026-04-25 09:37 4.42198 73.73775 13522 ft 356 kts 90°
2026-04-25 09:37 4.42281 73.76262 14154 ft 359 kts 84°
2026-04-25 09:37 4.42702 73.78740 14760 ft 363 kts 78°
2026-04-25 09:38 4.43254 73.81215 15354 ft 366 kts 77°
2026-04-25 09:38 4.43832 73.83711 15970 ft 369 kts 77°
2026-04-25 09:38 4.44414 73.86229 16553 ft 373 kts 77°
2026-04-25 09:38 4.44998 73.88768 17146 ft 376 kts 77°
2026-04-25 09:39 4.45585 73.91334 17734 ft 379 kts 77°
2026-04-25 09:39 4.46177 73.93923 18263 ft 383 kts 77°
2026-04-25 09:39 4.46772 73.96536 18742 ft 386 kts 77°
2026-04-25 09:40 4.47977 74.01828 19694 ft 393 kts 77°
2026-04-25 09:40 4.48587 74.04507 20153 ft 396 kts 77°
2026-04-25 09:40 4.49202 74.07210 20629 ft 399 kts 77°
2026-04-25 09:40 4.49821 74.09935 21100 ft 402 kts 77°
2026-04-25 09:41 4.50445 74.12679 21545 ft 406 kts 77°
2026-04-25 09:41 4.51066 74.15407 22014 ft 408 kts 77°
2026-04-25 09:41 4.51635 74.17914 22411 ft 411 kts 77°
2026-04-25 09:41 4.52294 74.20822 22875 ft 415 kts 78°
2026-04-25 09:42 4.52938 74.23650 23327 ft 418 kts 77°
2026-04-25 09:42 4.53585 74.26500 23701 ft 421 kts 77°
2026-04-25 09:42 4.54281 74.29365 24061 ft 424 kts 75°
2026-04-25 09:42 4.55128 74.32207 24421 ft 427 kts 73°
2026-04-25 09:43 4.56018 74.35057 24788 ft 430 kts 73°
2026-04-25 09:43 4.56916 74.37924 25128 ft 433 kts 73°
2026-04-25 09:43 4.57820 74.40816 25482 ft 436 kts 73°
2026-04-25 09:43 4.58725 74.43723 25846 ft 439 kts 74°
2026-04-25 09:44 4.59636 74.46652 26206 ft 441 kts 74°
2026-04-25 09:44 4.60548 74.49590 26567 ft 443 kts 74°
2026-04-25 09:44 4.61467 74.52551 26913 ft 446 kts 74°
2026-04-25 09:44 4.62390 74.55528 27258 ft 448 kts 74°
2026-04-25 09:45 4.63317 74.58517 27606 ft 451 kts 74°
2026-04-25 09:45 4.64252 74.61531 27946 ft 454 kts 74°
2026-04-25 09:45 4.65189 74.64556 28287 ft 456 kts 75°
2026-04-25 09:45 4.66133 74.67602 28629 ft 459 kts 75°
2026-04-25 09:46 4.67082 74.70663 28954 ft 461 kts 75°
2026-04-25 09:46 4.68034 74.73738 29279 ft 464 kts 75°
2026-04-25 09:46 4.68994 74.76836 29602 ft 466 kts 75°
2026-04-25 09:46 4.69957 74.79947 29912 ft 469 kts 75°
2026-04-25 09:47 4.70925 74.83072 30170 ft 471 kts 75°
2026-04-25 09:47 4.71898 74.86216 30448 ft 473 kts 75°
2026-04-25 09:47 4.72875 74.89372 30703 ft 475 kts 75°
2026-04-25 09:47 4.73856 74.92544 30968 ft 477 kts 75°
2026-04-25 09:48 4.74841 74.95725 31220 ft 479 kts 75°
2026-04-25 09:48 4.75830 74.98923 31479 ft 481 kts 75°
2026-04-25 09:48 4.76811 75.02094 31734 ft 483 kts 75°
2026-04-25 09:48 4.77808 75.05317 31997 ft 485 kts 75°
2026-04-25 09:49 4.78806 75.08546 32349 ft 485 kts 75°
2026-04-25 09:49 4.79805 75.11776 32653 ft 486 kts 75°
2026-04-25 09:49 4.80805 75.15008 33001 ft 485 kts 75°
2026-04-25 09:49 4.81805 75.18236 33377 ft 484 kts 75°
2026-04-25 09:50 4.82801 75.21454 33762 ft 483 kts 75°
2026-04-25 09:50 4.83796 75.24669 34058 ft 483 kts 75°
2026-04-25 09:50 4.84792 75.27888 34350 ft 483 kts 75°
2026-04-25 09:50 4.85786 75.31101 34636 ft 482 kts 75°
2026-04-25 09:51 4.86779 75.34313 34912 ft 482 kts 75°
2026-04-25 09:51 4.87772 75.37523 35208 ft 482 kts 75°
2026-04-25 09:51 4.88763 75.40730 35484 ft 482 kts 75°
2026-04-25 09:51 4.89755 75.43938 35776 ft 481 kts 75°
2026-04-25 09:52 4.90746 75.47144 36036 ft 482 kts 75°
2026-04-25 09:52 4.91738 75.50354 36299 ft 482 kts 75°
2026-04-25 09:52 4.92728 75.53560 36563 ft 481 kts 75°
2026-04-25 09:52 4.93719 75.56766 36830 ft 481 kts 75°
2026-04-25 09:53 4.94707 75.59968 37095 ft 481 kts 75°
2026-04-25 09:53 4.95697 75.63173 37351 ft 481 kts 75°
2026-04-25 09:53 4.96684 75.66374 37609 ft 480 kts 75°
2026-04-25 09:53 4.97668 75.69572 37855 ft 480 kts 75°
2026-04-25 09:54 4.98646 75.72754 38108 ft 480 kts 75°
2026-04-25 09:54 4.99620 75.75923 38203 ft 483 kts 75°
2026-04-25 09:54 5.00608 75.79137 38485 ft 481 kts 75°
2026-04-25 09:54 5.01593 75.82339 38739 ft 480 kts 75°
2026-04-25 09:55 5.02574 75.85532 38952 ft 479 kts 75°
2026-04-25 09:55 5.03555 75.88722 39147 ft 479 kts 75°
2026-04-25 09:55 5.04534 75.91910 39338 ft 478 kts 75°
2026-04-25 09:55 5.05513 75.95097 39530 ft 478 kts 75°
2026-04-25 09:56 5.06491 75.98282 39717 ft 477 kts 75°
2026-04-25 09:56 5.07467 76.01460 39908 ft 477 kts 75°
2026-04-25 09:56 5.08444 76.04642 40077 ft 477 kts 75°
2026-04-25 09:56 5.09419 76.07821 40255 ft 476 kts 75°
2026-04-25 09:57 5.10393 76.10993 40426 ft 476 kts 75°
2026-04-25 09:57 5.11367 76.14165 40594 ft 476 kts 75°
2026-04-25 09:57 5.12342 76.17338 40760 ft 475 kts 75°
2026-04-25 09:57 5.13317 76.20510 40836 ft 477 kts 75°
2026-04-25 09:58 5.15274 76.26879 40825 ft 477 kts 75°
2026-04-25 09:58 5.17227 76.33237 40819 ft 477 kts 75°
2026-04-25 09:59 5.19178 76.39590 40827 ft 477 kts 75°
2026-04-25 09:59 5.21131 76.45955 40819 ft 478 kts 75°
2026-04-25 10:00 5.23072 76.52280 40836 ft 478 kts 75°
2026-04-25 10:00 5.25026 76.58651 40831 ft 478 kts 75°
2026-04-25 10:01 5.26980 76.65027 40831 ft 478 kts 75°
2026-04-25 10:01 5.28934 76.71404 40820 ft 478 kts 75°
2026-04-25 10:02 5.30885 76.77772 40835 ft 478 kts 75°
2026-04-25 10:02 5.32838 76.84150 40821 ft 478 kts 75°
2026-04-25 10:03 5.34788 76.90521 40822 ft 478 kts 75°
2026-04-25 10:03 5.36736 76.96890 40820 ft 477 kts 75°
2026-04-25 10:04 5.38684 77.03257 40819 ft 477 kts 75°
2026-04-25 10:04 5.40631 77.09627 40827 ft 477 kts 75°
2026-04-25 10:05 5.42577 77.15995 40817 ft 477 kts 75°
2026-04-25 10:05 5.44523 77.22367 40821 ft 477 kts 75°
2026-04-25 10:06 5.46467 77.28734 40836 ft 477 kts 75°
2026-04-25 10:06 5.48406 77.35087 40821 ft 476 kts 75°
2026-04-25 10:07 5.50344 77.41441 40829 ft 476 kts 75°
2026-04-25 10:07 5.52282 77.47794 40820 ft 476 kts 75°
2026-04-25 10:08 5.53892 77.53077 40820 ft 476 kts 75°
2026-04-25 10:08 5.56143 77.60463 40834 ft 476 kts 75°
2026-04-25 10:09 5.57952 77.66413 40934 ft 474 kts 75°
2026-04-25 10:09 5.59874 77.72745 41172 ft 475 kts 75°
2026-04-25 10:10 5.60837 77.75917 41297 ft 475 kts 75°
2026-04-25 10:10 5.61487 77.78063 41371 ft 476 kts 75°
2026-04-25 10:10 5.62640 77.80959 41467 ft 477 kts 60°
2026-04-25 10:10 5.64648 77.83754 41610 ft 476 kts 51°
2026-04-25 10:11 5.66788 77.86291 41744 ft 476 kts 50°
2026-04-25 10:11 5.68939 77.88834 41416 ft 480 kts 50°
2026-04-25 10:11 5.71080 77.91414 40960 ft 479 kts 51°
2026-04-25 10:11 5.73189 77.93990 40848 ft 478 kts 51°
2026-04-25 10:12 5.77391 77.99177 40835 ft 479 kts 51°
2026-04-25 10:13 5.83678 78.06986 40823 ft 479 kts 52°
2026-04-25 10:13 5.87862 78.12194 40833 ft 479 kts 52°
2026-04-25 10:14 5.92019 78.17370 40825 ft 479 kts 52°
2026-04-25 10:14 5.96231 78.22616 40672 ft 480 kts 52°
2026-04-25 10:14 5.98298 78.25192 40196 ft 480 kts 52°
2026-04-25 10:15 6.00413 78.27827 39362 ft 489 kts 52°
2026-04-25 10:15 6.02556 78.30498 38737 ft 493 kts 52°
2026-04-25 10:15 6.04711 78.33184 38087 ft 495 kts 52°
2026-04-25 10:15 6.06873 78.35879 37458 ft 496 kts 52°
2026-04-25 10:16 6.09037 78.38577 36838 ft 496 kts 52°
2026-04-25 10:16 6.11203 78.41277 36212 ft 497 kts 52°
2026-04-25 10:16 6.13376 78.43986 35538 ft 499 kts 52°
2026-04-25 10:16 6.15558 78.46708 34837 ft 501 kts 52°
2026-04-25 10:17 6.17751 78.49445 34105 ft 505 kts 53°
2026-04-25 10:17 6.19961 78.52202 33271 ft 508 kts 53°
2026-04-25 10:17 6.22182 78.54974 32468 ft 510 kts 53°
2026-04-25 10:17 6.24410 78.57755 31677 ft 511 kts 53°
2026-04-25 10:18 6.26642 78.60541 30881 ft 512 kts 53°
2026-04-25 10:18 6.28863 78.63312 30487 ft 505 kts 53°
2026-04-25 10:18 6.31058 78.66051 29911 ft 501 kts 53°
2026-04-25 10:18 6.33229 78.68762 29362 ft 496 kts 53°
2026-04-25 10:19 6.35379 78.71448 28786 ft 490 kts 53°
2026-04-25 10:19 6.37503 78.74101 28213 ft 485 kts 53°
2026-04-25 10:19 6.39604 78.76726 27676 ft 480 kts 53°
2026-04-25 10:19 6.41685 78.79324 27163 ft 474 kts 53°
2026-04-25 10:20 6.43741 78.81886 26632 ft 468 kts 52°
2026-04-25 10:20 6.45780 78.84424 26081 ft 464 kts 52°
2026-04-25 10:20 6.47797 78.86935 25567 ft 459 kts 52°
2026-04-25 10:20 6.49788 78.89414 25062 ft 454 kts 52°
2026-04-25 10:21 6.51761 78.91872 24562 ft 449 kts 52°
2026-04-25 10:21 6.53712 78.94302 24119 ft 443 kts 52°
2026-04-25 10:21 6.55641 78.96705 23606 ft 439 kts 52°
2026-04-25 10:21 6.57550 78.99084 23039 ft 435 kts 52°
2026-04-25 10:22 6.59445 79.01445 22420 ft 432 kts 52°
2026-04-25 10:22 6.61323 79.03786 21815 ft 428 kts 52°
2026-04-25 10:22 6.63176 79.06113 21315 ft 423 kts 53°
2026-04-25 10:22 6.64987 79.08418 20830 ft 418 kts 53°
2026-04-25 10:23 6.66773 79.10695 20352 ft 412 kts 53°
2026-04-25 10:23 6.68540 79.12949 19878 ft 408 kts 53°
2026-04-25 10:23 6.70285 79.15175 19400 ft 403 kts 53°
2026-04-25 10:23 6.71928 79.17270 18983 ft 399 kts 53°
2026-04-25 10:24 6.73612 79.19419 18513 ft 395 kts 53°
2026-04-25 10:24 6.75320 79.21599 18051 ft 391 kts 53°
2026-04-25 10:24 6.76996 79.23736 17530 ft 387 kts 53°
2026-04-25 10:24 6.78648 79.25844 17089 ft 381 kts 53°
2026-04-25 10:25 6.80278 79.27923 16648 ft 376 kts 53°
2026-04-25 10:25 6.81890 79.29980 16184 ft 371 kts 53°
2026-04-25 10:25 6.83479 79.32008 15752 ft 367 kts 53°
2026-04-25 10:25 6.85052 79.34016 15319 ft 364 kts 53°
2026-04-25 10:26 6.86612 79.36008 14876 ft 361 kts 52°
2026-04-25 10:26 6.88163 79.37988 14427 ft 359 kts 52°
2026-04-25 10:26 6.89699 79.39949 14013 ft 356 kts 52°
2026-04-25 10:26 6.91225 79.41899 13574 ft 353 kts 52°
2026-04-25 10:27 6.92747 79.43835 13112 ft 351 kts 51°
2026-04-25 10:27 6.94443 79.45579 12679 ft 349 kts 42°
2026-04-25 10:27 6.96313 79.47119 12241 ft 346 kts 39°
2026-04-25 10:27 6.98188 79.48595 11816 ft 343 kts 39°
2026-04-25 10:28 7.00065 79.50067 11429 ft 339 kts 39°
2026-04-25 10:28 7.01905 79.51513 11149 ft 332 kts 39°
2026-04-25 10:28 7.03714 79.52938 10784 ft 329 kts 39°
2026-04-25 10:28 7.05509 79.54355 10446 ft 324 kts 39°
2026-04-25 10:29 7.07243 79.55724 10354 ft 310 kts 39°
2026-04-25 10:29 7.08909 79.57040 10239 ft 298 kts 39°
2026-04-25 10:29 7.10507 79.58304 10105 ft 289 kts 39°
2026-04-25 10:29 7.12068 79.59539 9974 ft 281 kts 40°
2026-04-25 10:30 7.13585 79.60739 9678 ft 281 kts 39°
2026-04-25 10:30 7.15145 79.61974 9306 ft 282 kts 40°
2026-04-25 10:30 7.16685 79.63193 8994 ft 281 kts 39°
2026-04-25 10:30 7.18215 79.64405 8675 ft 280 kts 39°
2026-04-25 10:31 7.19743 79.65614 8373 ft 279 kts 39°
2026-04-25 10:31 7.21261 79.66816 8055 ft 277 kts 39°
2026-04-25 10:31 7.22776 79.68015 7742 ft 276 kts 40°
2026-04-25 10:31 7.24262 79.69192 7419 ft 275 kts 40°
2026-04-25 10:32 7.25763 79.70385 7109 ft 275 kts 40°
2026-04-25 10:32 7.27262 79.71576 6792 ft 274 kts 40°
2026-04-25 10:32 7.28759 79.72766 6471 ft 274 kts 40°
2026-04-25 10:32 7.30248 79.73950 6159 ft 272 kts 40°
2026-04-25 10:33 7.31737 79.75130 5903 ft 273 kts 40°
2026-04-25 10:33 7.33241 79.76319 5429 ft 276 kts 40°
2026-04-25 10:33 7.34747 79.77509 5083 ft 274 kts 39°
2026-04-25 10:33 7.36243 79.78691 4714 ft 273 kts 39°
2026-04-25 10:34 7.37731 79.79867 4327 ft 271 kts 39°
2026-04-25 10:34 7.39172 79.81060 4085 ft 264 kts 46°
2026-04-25 10:34 7.40165 79.82554 3890 ft 255 kts 70°
2026-04-25 10:34 7.40320 79.84316 3541 ft 256 kts 101°
2026-04-25 10:35 7.39611 79.85936 3259 ft 254 kts 120°
2026-04-25 10:35 7.38606 79.87391 3029 ft 254 kts 124°
2026-04-25 10:35 7.37566 79.88818 2815 ft 249 kts 124°
2026-04-25 10:35 7.36550 79.90208 2646 ft 245 kts 126°
2026-04-25 10:36 7.35364 79.91438 2347 ft 248 kts 144°
2026-04-25 10:36 7.33846 79.92317 1892 ft 254 kts 156°
2026-04-25 10:36 7.32253 79.93069 1607 ft 249 kts 156°
2026-04-25 10:36 7.30709 79.93713 1493 ft 234 kts 161°
2026-04-25 10:37 7.29246 79.94334 1539 ft 217 kts 160°
2026-04-25 10:37 7.27904 79.94874 1511 ft 199 kts 168°
2026-04-25 10:37 7.26602 79.94896 1488 ft 179 kts 198°
2026-04-25 10:37 7.25645 79.94274 1450 ft 158 kts 223°
2026-04-25 10:38 7.24829 79.93599 1374 ft 151 kts 219°
2026-04-25 10:38 7.24018 79.92988 1205 ft 140 kts 222°
2026-04-25 10:38 7.23298 79.92357 993 ft 135 kts 223°
2026-04-25 10:38 7.22557 79.91771 799 ft 136 kts 223°
2026-04-25 10:39 7.21826 79.91178 683 ft 136 kts 218°
2026-04-25 10:39 7.21049 79.90619 513 ft 137 kts 219°
2026-04-25 10:39 7.20297 79.90042 307 ft 135 kts 223°
2026-04-25 10:39 7.19557 79.89471 115 ft 132 kts 220°
2026-04-25 10:40 7.18852 79.88934 34 ft 110 kts 218°
2026-04-25 10:40 7.18399 79.88591 31 ft 53 kts 217°
2026-04-25 10:40 7.18129 79.88386 32 ft 45 kts 217°
2026-04-25 10:40 7.17976 79.88268 33 ft 34 kts 218°
2026-04-25 10:41 7.17873 79.88218 33 ft 7 kts 151°
2026-04-25 10:41 7.17838 79.88257 33 ft 9 kts 129°
2026-04-25 10:41 7.17796 79.88313 32 ft 10 kts 122°
2026-04-25 10:41 7.17815 79.88369 31 ft 9 kts 36°
2026-04-25 10:42 7.17855 79.88415 31 ft 7 kts 82°
2026-04-25 10:42 7.17833 79.88468 31 ft 9 kts 122°
2026-04-25 10:42 7.17791 79.88524 31 ft 11 kts 127°
2026-04-25 10:42 7.17746 79.88579 31 ft 8 kts 148°
2026-04-25 10:43 7.17706 79.88565 31 ft 5 kts 215°
2026-04-25 10:43 7.17686 79.88551 31 ft 4 kts 217°
2026-04-25 10:43 7.17664 79.88534 31 ft 4 kts 217°
2026-04-25 10:43 7.17653 79.88525 31 ft 0 kts 217°